User: anonymous   Login
Location: Knowlton
(51.2333°N, 1.2667°E)
Time: 03:37:43
(UTC+00:00)
Language:

KAITUO 1B - Orbit

View from above orbital plane
View from above orbital plane
View from above satellite
View from above satellite

Ground track
Ground track

The orbit data is extracted from the following two-line orbital elements,

1 40912U 15049P   21332.93487850  .00003050  00000-0  13441-3 0  9994
2 40912  97.4435 340.8763 0012249 289.8051 133.9283 15.22519939343210
Epoch (UTC): 28 November 2021 22:26:13
Eccentricity: 0.0012249
inclination: 97.4435°
perigee height: 490 km
apogee height: 506 km
right ascension of ascending node: 340.8763°
argument of perigee: 289.8051°
revolutions per day: 15.22519939
mean anomaly at epoch: 133.9283°
orbit number at epoch: 34321

The dashed part of the orbit path shows where the satellite is in the earth's shadow,  

DLR